Location: Makakahi
(40.6833°S, 175.6000°E)
Time: 06:46:06
(UTC+00:00)

DMSP F15 (USA 147) - Pass Details

Date: 11 December 2024
Orbit: 827 x 842 km, 99.1° (Epoch: 18 January)

Event Time Altitude Azimuth Distance (km) Brightness Sun altitude
Rises 08:05:31 0° 171° (S) 3,435 8.8 -4.5°
Reaches altitude 10° 08:07:56 10° 175° (S) 2,494 8.1 -4.9°
Maximum altitude 08:13:19 54° 251° (WSW) 1,028 6.2 -5.7°
Drops below altitude 10° 08:18:38 10° 326° (NNW) 2,465 7.6 -6.5°
Sets 08:21:01 0° 331° (NNW) 3,391 8.2 -6.9°
